Location: ???
(60.6398°N, 46.9067°E)
Time: 19:40:59
(UTC+00:00)

Helios 1A Rocket - Pass Details

Date: 08 December 2019
Orbit: 563 x 587 km, 98.3° (Epoch: 17 January)

Event Time Altitude Azimuth Distance (km) Brightness Sun altitude
Rises 12:42:50 0° 150° (SSE) 2,799 6.5 -6.2°
Reaches altitude 10° 12:45:00 10° 147° (SSE) 1,899 5.6 -6.4°
Maximum altitude 12:49:03 63° 67° (ENE) 654 2.9 -6.8°
Drops below altitude 10° 12:53:07 10° 346° (NNW) 1,898 5.4 -7.2°
Sets 12:55:17 0° 344° (NNW) 2,797 6.2 -7.5°
